EJA252 KSDL-MMSD

Flight info

Callsign EJA252
Flight time 1h 55m
Altitude 39000
Route BNYRD6 TUS J92 VYLLA DCT ENEKO ENEKO1A
Aircraft E35L/M-SDFGIRWXY/SB1

Departure

Time 2026-05-05 16:05
Airport Scottsdale Airport (KSDL)

Arrival

Time 2026-05-05 18:00
Airport Los Cabos International Airport (MMSD)
Time Latitude Longitude Altitude Speed Heading
2026-05-05 15:51 33.62430 -111.91190 1515 ft 0 kts 222°
2026-05-05 15:58 33.62430 -111.91191 1515 ft 0 kts 222°
2026-05-05 15:58 33.62410 -111.91208 1515 ft 5 kts 206°
2026-05-05 15:59 33.62366 -111.91194 1515 ft 8 kts 136°
2026-05-05 15:59 33.62325 -111.91148 1515 ft 6 kts 122°
2026-05-05 15:59 33.62350 -111.91097 1515 ft 9 kts 43°
2026-05-05 15:59 33.62413 -111.91022 1515 ft 14 kts 44°
2026-05-05 16:00 33.62496 -111.90929 1515 ft 17 kts 44°
2026-05-05 16:00 33.62595 -111.90815 1515 ft 20 kts 44°
2026-05-05 16:00 33.62686 -111.90709 1515 ft 15 kts 44°
2026-05-05 16:00 33.62773 -111.90608 1515 ft 19 kts 44°
2026-05-05 16:01 33.62859 -111.90509 1515 ft 13 kts 44°
2026-05-05 16:01 33.62931 -111.90426 1515 ft 12 kts 43°
2026-05-05 16:01 33.63005 -111.90341 1515 ft 16 kts 45°
2026-05-05 16:01 33.63071 -111.90265 1515 ft 11 kts 44°
2026-05-05 16:02 33.63111 -111.90218 1515 ft 8 kts 44°
2026-05-05 16:02 33.63139 -111.90170 1515 ft 5 kts 99°
2026-05-05 16:02 33.63114 -111.90134 1515 ft 7 kts 135°
2026-05-05 16:02 33.63092 -111.90128 1515 ft 2 kts 219°
2026-05-05 16:03 33.63090 -111.90129 1515 ft 0 kts 221°
2026-05-05 16:03 33.63087 -111.90132 1515 ft 0 kts 221°
2026-05-05 16:04 33.63062 -111.90160 1515 ft 31 kts 225°
2026-05-05 16:04 33.62661 -111.90624 1515 ft 125 kts 224°
2026-05-05 16:04 33.61902 -111.91515 1797 ft 169 kts 225°
2026-05-05 16:05 33.61352 -111.92836 2469 ft 197 kts 267°
2026-05-05 16:05 33.61364 -111.94369 3944 ft 178 kts 271°
2026-05-05 16:05 33.61207 -111.95916 4673 ft 210 kts 258°
2026-05-05 16:05 33.60936 -111.97838 5295 ft 254 kts 258°
2026-05-05 16:06 33.60518 -112.00020 6160 ft 280 kts 245°
2026-05-05 16:06 33.59316 -112.01864 7123 ft 289 kts 216°
2026-05-05 16:06 33.57471 -112.02782 8138 ft 297 kts 188°
2026-05-05 16:06 33.55383 -112.02547 9219 ft 305 kts 167°
2026-05-05 16:07 33.53290 -112.02159 10340 ft 306 kts 176°
2026-05-05 16:07 33.51165 -112.01919 11474 ft 308 kts 177°
2026-05-05 16:07 33.49033 -112.01695 12622 ft 308 kts 178°
2026-05-05 16:07 33.46873 -112.01472 13780 ft 308 kts 179°
2026-05-05 16:08 33.44750 -112.01253 14912 ft 306 kts 179°
2026-05-05 16:08 33.42643 -112.01035 16033 ft 305 kts 180°
2026-05-05 16:08 33.40519 -112.00816 17159 ft 302 kts 180°
2026-05-05 16:08 33.38410 -112.00600 18170 ft 303 kts 181°
2026-05-05 16:09 33.36220 -112.00377 18524 ft 325 kts 181°
2026-05-05 16:09 33.33932 -112.00139 19275 ft 332 kts 181°
2026-05-05 16:09 33.31624 -111.99900 20344 ft 329 kts 182°
2026-05-05 16:09 33.29378 -111.99670 21255 ft 330 kts 183°
2026-05-05 16:10 33.27059 -111.99433 22073 ft 333 kts 184°
2026-05-05 16:10 33.24762 -111.99197 22921 ft 335 kts 184°
2026-05-05 16:10 33.22410 -111.98955 23730 ft 336 kts 185°
2026-05-05 16:10 33.20097 -111.98718 24516 ft 337 kts 186°
2026-05-05 16:11 33.17724 -111.98474 25307 ft 337 kts 186°
2026-05-05 16:11 33.10841 -111.97766 28010 ft 320 kts 188°
2026-05-05 16:12 33.08581 -111.97536 28831 ft 316 kts 188°
2026-05-05 16:12 33.04213 -111.97092 30432 ft 310 kts 189°
2026-05-05 16:13 32.97742 -111.95699 32458 ft 340 kts 174°
2026-05-05 16:13 32.95553 -111.94501 33048 ft 342 kts 174°
2026-05-05 16:13 32.93383 -111.93359 33777 ft 339 kts 174°
2026-05-05 16:14 32.89082 -111.90973 35191 ft 352 kts 166°
2026-05-05 16:14 32.85197 -111.86787 36587 ft 390 kts 148°
2026-05-05 16:15 32.81591 -111.82006 37803 ft 385 kts 150°
2026-05-05 16:15 32.77921 -111.77321 38992 ft 383 kts 151°
2026-05-05 16:16 32.74084 -111.72463 39071 ft 412 kts 149°
2026-05-05 16:16 32.70008 -111.67293 39067 ft 433 kts 148°
2026-05-05 16:17 32.63864 -111.59512 39069 ft 427 kts 149°
2026-05-05 16:18 32.57779 -111.51832 39070 ft 421 kts 149°
2026-05-05 16:19 32.51801 -111.44303 39079 ft 416 kts 150°
2026-05-05 16:19 32.45822 -111.36789 39079 ft 413 kts 150°
2026-05-05 16:20 32.37899 -111.26855 39055 ft 408 kts 151°
2026-05-05 16:22 32.28157 -111.14677 39047 ft 401 kts 152°
2026-05-05 16:23 32.20524 -111.05164 39068 ft 396 kts 152°
2026-05-05 16:23 32.14874 -110.98140 39068 ft 394 kts 152°
2026-05-05 16:24 32.12941 -110.95905 39072 ft 379 kts 160°
2026-05-05 16:24 32.10842 -110.94169 39077 ft 354 kts 170°
2026-05-05 16:24 32.06486 -110.92261 39071 ft 318 kts 186°
2026-05-05 16:25 32.04343 -110.91979 39079 ft 302 kts 194°
2026-05-05 16:25 32.00146 -110.91970 39074 ft 296 kts 196°
2026-05-05 16:25 31.98085 -110.92037 39072 ft 296 kts 198°
2026-05-05 16:26 31.93982 -110.92210 39079 ft 296 kts 197°
2026-05-05 16:26 31.89852 -110.92396 39087 ft 297 kts 198°
2026-05-05 16:27 31.87766 -110.92492 39112 ft 298 kts 198°
2026-05-05 16:27 31.85709 -110.92588 39117 ft 299 kts 197°
2026-05-05 16:27 31.83601 -110.92684 39103 ft 300 kts 198°
2026-05-05 16:27 31.81495 -110.92782 39125 ft 301 kts 198°
2026-05-05 16:28 31.77266 -110.92976 39099 ft 304 kts 197°
2026-05-05 16:28 31.73018 -110.93172 39121 ft 306 kts 197°
2026-05-05 16:29 31.68743 -110.93369 39113 ft 308 kts 197°
2026-05-05 16:29 31.64431 -110.93567 39112 ft 310 kts 197°
2026-05-05 16:30 31.60097 -110.93765 39094 ft 312 kts 198°
2026-05-05 16:30 31.55758 -110.93964 39117 ft 313 kts 196°
2026-05-05 16:31 31.51406 -110.94164 39125 ft 314 kts 197°
2026-05-05 16:31 31.47025 -110.94364 39123 ft 315 kts 197°
2026-05-05 16:32 31.42616 -110.94565 39125 ft 316 kts 197°
2026-05-05 16:32 31.38214 -110.94767 39132 ft 316 kts 197°
2026-05-05 16:33 31.33773 -110.94945 39135 ft 322 kts 194°
2026-05-05 16:33 31.31499 -110.94621 39146 ft 340 kts 185°
2026-05-05 16:33 31.29184 -110.94044 39140 ft 339 kts 185°
2026-05-05 16:34 31.24528 -110.92948 39158 ft 339 kts 185°
2026-05-05 16:34 31.19888 -110.91869 39151 ft 340 kts 185°
2026-05-05 16:35 31.15239 -110.90792 39162 ft 340 kts 186°
2026-05-05 16:35 31.10574 -110.89713 39158 ft 341 kts 185°
2026-05-05 16:36 31.05901 -110.88631 39153 ft 341 kts 186°
2026-05-05 16:36 31.01236 -110.87555 39154 ft 341 kts 185°
2026-05-05 16:37 30.96566 -110.86478 39161 ft 342 kts 185°
2026-05-05 16:37 30.91887 -110.85399 39154 ft 342 kts 185°
2026-05-05 16:38 30.87192 -110.84318 39174 ft 342 kts 185°
2026-05-05 16:38 30.82448 -110.83227 39173 ft 344 kts 184°
2026-05-05 16:39 30.77707 -110.82137 39169 ft 346 kts 185°
2026-05-05 16:39 30.72948 -110.81046 39166 ft 347 kts 184°
2026-05-05 16:40 30.68167 -110.79948 39160 ft 349 kts 185°
2026-05-05 16:40 30.63393 -110.78855 39156 ft 350 kts 185°
2026-05-05 16:41 30.58548 -110.77746 39165 ft 350 kts 185°
2026-05-05 16:41 30.53740 -110.76647 39155 ft 352 kts 184°
2026-05-05 16:42 30.48903 -110.75541 39152 ft 352 kts 184°
2026-05-05 16:42 30.44068 -110.74438 39154 ft 353 kts 184°
2026-05-05 16:43 30.39220 -110.73334 39150 ft 354 kts 184°
2026-05-05 16:43 30.34341 -110.72222 39147 ft 354 kts 184°
2026-05-05 16:44 30.29456 -110.71111 39138 ft 355 kts 184°
2026-05-05 16:44 30.24531 -110.69992 39138 ft 355 kts 184°
2026-05-05 16:45 30.19625 -110.68878 39142 ft 355 kts 184°
2026-05-05 16:45 30.14767 -110.67776 39135 ft 355 kts 184°
2026-05-05 16:46 30.09893 -110.66672 39144 ft 355 kts 184°
2026-05-05 16:46 30.05031 -110.65572 39143 ft 355 kts 184°
2026-05-05 16:47 30.00187 -110.64476 39141 ft 355 kts 184°
2026-05-05 16:47 29.95311 -110.63375 39140 ft 356 kts 184°
2026-05-05 16:48 29.90419 -110.62271 39134 ft 355 kts 184°
2026-05-05 16:48 29.85518 -110.61166 39154 ft 356 kts 184°
2026-05-05 16:49 29.80623 -110.60064 39147 ft 357 kts 184°
2026-05-05 16:49 29.75744 -110.58966 39141 ft 359 kts 184°
2026-05-05 16:50 29.70819 -110.57859 39137 ft 360 kts 184°
2026-05-05 16:50 29.65888 -110.56751 39129 ft 361 kts 184°
2026-05-05 16:51 29.60957 -110.55645 39129 ft 361 kts 184°
2026-05-05 16:51 29.56017 -110.54539 39124 ft 362 kts 184°
2026-05-05 16:52 29.51073 -110.53432 39117 ft 362 kts 183°
2026-05-05 16:52 29.46120 -110.52324 39120 ft 363 kts 183°
2026-05-05 16:53 29.41169 -110.51218 39122 ft 363 kts 183°
2026-05-05 16:53 29.36212 -110.50112 39117 ft 363 kts 183°
2026-05-05 16:54 29.31236 -110.49001 39111 ft 363 kts 184°
2026-05-05 16:54 29.26273 -110.47897 39110 ft 363 kts 184°
2026-05-05 16:55 29.21331 -110.46796 39109 ft 363 kts 183°
2026-05-05 16:55 29.16368 -110.45692 39110 ft 363 kts 183°
2026-05-05 16:56 29.11384 -110.44587 39109 ft 363 kts 183°
2026-05-05 16:56 29.06444 -110.43491 39104 ft 363 kts 183°
2026-05-05 16:57 29.01484 -110.42390 39106 ft 362 kts 183°
2026-05-05 16:57 28.96546 -110.41297 39104 ft 362 kts 183°
2026-05-05 16:58 28.91607 -110.40205 39101 ft 362 kts 183°
2026-05-05 16:58 28.86631 -110.39105 39118 ft 363 kts 183°
2026-05-05 16:59 28.81658 -110.38008 39122 ft 364 kts 183°
2026-05-05 16:59 28.76681 -110.36910 39116 ft 365 kts 183°
2026-05-05 17:00 28.71685 -110.35809 39116 ft 366 kts 182°
2026-05-05 17:00 28.66659 -110.34702 39087 ft 367 kts 183°
2026-05-05 17:01 28.61585 -110.33586 39082 ft 366 kts 183°
2026-05-05 17:01 28.56591 -110.32488 39078 ft 365 kts 183°
2026-05-05 17:02 28.51600 -110.31393 39069 ft 365 kts 183°
2026-05-05 17:02 28.46626 -110.30302 39062 ft 364 kts 183°
2026-05-05 17:03 28.41647 -110.29211 39066 ft 363 kts 183°
2026-05-05 17:03 28.36669 -110.28121 39060 ft 363 kts 183°
2026-05-05 17:04 28.31683 -110.27031 39061 ft 362 kts 183°
2026-05-05 17:04 28.26765 -110.25957 39058 ft 361 kts 183°
2026-05-05 17:05 28.21819 -110.24877 39057 ft 361 kts 183°
2026-05-05 17:05 28.16853 -110.23795 39050 ft 361 kts 183°
2026-05-05 17:06 28.11941 -110.22725 39047 ft 361 kts 183°
2026-05-05 17:06 28.07016 -110.21652 39041 ft 360 kts 183°
2026-05-05 17:07 28.02069 -110.20577 39048 ft 360 kts 183°
2026-05-05 17:07 27.97143 -110.19507 39045 ft 360 kts 182°
2026-05-05 17:08 27.92236 -110.18442 39039 ft 359 kts 182°
2026-05-05 17:08 27.87309 -110.17373 39053 ft 359 kts 182°
2026-05-05 17:09 27.82370 -110.16304 39059 ft 360 kts 182°
2026-05-05 17:09 27.77430 -110.15235 39049 ft 361 kts 182°
2026-05-05 17:10 27.72480 -110.14164 39057 ft 362 kts 182°
2026-05-05 17:10 27.67541 -110.13097 39045 ft 363 kts 182°
2026-05-05 17:11 27.62572 -110.12025 39050 ft 363 kts 182°
2026-05-05 17:11 27.57583 -110.10949 39041 ft 364 kts 182°
2026-05-05 17:12 27.52573 -110.09869 39041 ft 364 kts 182°
2026-05-05 17:12 27.47579 -110.08794 39040 ft 365 kts 182°
2026-05-05 17:13 27.42547 -110.07713 39045 ft 365 kts 181°
2026-05-05 17:13 27.37575 -110.06644 39045 ft 366 kts 181°
2026-05-05 17:14 27.32532 -110.05562 39046 ft 366 kts 182°
2026-05-05 17:14 27.27548 -110.04493 39051 ft 366 kts 182°
2026-05-05 17:15 27.22509 -110.03413 39046 ft 367 kts 181°
2026-05-05 17:15 27.17513 -110.02344 39041 ft 367 kts 181°
2026-05-05 17:16 27.12471 -110.01266 39043 ft 367 kts 181°
2026-05-05 17:16 27.07452 -110.00194 39050 ft 367 kts 181°
2026-05-05 17:17 27.02421 -109.99120 39042 ft 367 kts 181°
2026-05-05 17:17 26.97406 -109.98050 39037 ft 367 kts 181°
2026-05-05 17:18 26.92387 -109.96981 39040 ft 367 kts 181°
2026-05-05 17:18 26.87294 -109.95897 39059 ft 368 kts 181°
2026-05-05 17:19 26.82268 -109.94828 39052 ft 369 kts 180°
2026-05-05 17:19 26.77200 -109.93752 39051 ft 370 kts 181°
2026-05-05 17:20 26.72107 -109.92670 39051 ft 371 kts 181°
2026-05-05 17:20 26.67036 -109.91594 39044 ft 373 kts 181°
2026-05-05 17:21 26.61925 -109.90511 39053 ft 373 kts 180°
2026-05-05 17:22 26.54248 -109.88886 39050 ft 375 kts 180°
2026-05-05 17:22 26.49122 -109.87802 39046 ft 375 kts 180°
2026-05-05 17:23 26.43959 -109.86712 39047 ft 376 kts 180°
2026-05-05 17:23 26.38798 -109.85622 39050 ft 377 kts 180°
2026-05-05 17:24 26.33661 -109.84539 39046 ft 377 kts 180°
2026-05-05 17:24 26.28488 -109.83450 39041 ft 378 kts 180°
2026-05-05 17:25 26.23324 -109.82362 39046 ft 378 kts 180°
2026-05-05 17:25 26.18123 -109.81269 39040 ft 379 kts 180°
2026-05-05 17:26 26.12959 -109.80183 39043 ft 379 kts 180°
2026-05-05 17:26 26.07753 -109.79091 39038 ft 379 kts 179°
2026-05-05 17:27 26.02528 -109.77995 39043 ft 380 kts 180°
2026-05-05 17:27 25.97316 -109.76904 39040 ft 380 kts 179°
2026-05-05 17:28 25.92097 -109.75811 39040 ft 381 kts 179°
2026-05-05 17:28 25.86868 -109.74718 39051 ft 381 kts 179°
2026-05-05 17:29 25.81633 -109.73624 39050 ft 382 kts 179°
2026-05-05 17:29 25.76391 -109.72530 39044 ft 383 kts 179°
2026-05-05 17:30 25.71150 -109.71436 39052 ft 384 kts 179°
2026-05-05 17:30 25.65868 -109.70335 39047 ft 385 kts 179°
2026-05-05 17:31 25.60582 -109.69235 39043 ft 386 kts 179°
2026-05-05 17:31 25.55290 -109.68134 39042 ft 387 kts 179°
2026-05-05 17:32 25.49967 -109.67027 39043 ft 387 kts 179°
2026-05-05 17:32 25.44650 -109.65923 39045 ft 388 kts 179°
2026-05-05 17:33 25.39328 -109.64819 39041 ft 389 kts 179°
2026-05-05 17:33 25.33963 -109.63708 39048 ft 389 kts 178°
2026-05-05 17:34 25.28634 -109.62604 39047 ft 390 kts 179°
2026-05-05 17:34 25.23310 -109.61503 38948 ft 393 kts 178°
2026-05-05 17:34 25.20577 -109.60940 38320 ft 402 kts 178°
2026-05-05 17:35 25.17797 -109.60365 37772 ft 407 kts 178°
2026-05-05 17:35 25.15001 -109.59786 37311 ft 408 kts 178°
2026-05-05 17:35 25.12182 -109.59204 36816 ft 409 kts 177°
2026-05-05 17:35 25.09361 -109.58622 36331 ft 409 kts 177°
2026-05-05 17:36 25.06552 -109.58041 35843 ft 410 kts 177°
2026-05-05 17:36 25.03738 -109.57461 35355 ft 410 kts 177°
2026-05-05 17:36 25.00947 -109.56886 34873 ft 409 kts 177°
2026-05-05 17:36 24.98111 -109.56303 34380 ft 409 kts 176°
2026-05-05 17:37 24.95288 -109.55720 33893 ft 408 kts 177°
2026-05-05 17:37 24.92526 -109.55153 33413 ft 407 kts 176°
2026-05-05 17:37 24.89737 -109.54578 32919 ft 406 kts 176°
2026-05-05 17:37 24.86928 -109.54001 32499 ft 405 kts 176°
2026-05-05 17:38 24.84116 -109.53423 32086 ft 403 kts 176°
2026-05-05 17:38 24.81367 -109.52858 31582 ft 403 kts 176°
2026-05-05 17:38 24.78617 -109.52293 30962 ft 401 kts 176°
2026-05-05 17:38 24.75903 -109.51736 30356 ft 397 kts 176°
2026-05-05 17:39 24.73195 -109.51180 29741 ft 392 kts 176°
2026-05-05 17:39 24.70515 -109.50631 29129 ft 389 kts 176°
2026-05-05 17:39 24.67858 -109.50086 28515 ft 385 kts 176°
2026-05-05 17:39 24.65249 -109.49552 27906 ft 382 kts 176°
2026-05-05 17:40 24.62645 -109.49019 27291 ft 380 kts 176°
2026-05-05 17:40 24.60046 -109.48487 26743 ft 376 kts 176°
2026-05-05 17:40 24.57473 -109.47960 26249 ft 371 kts 176°
2026-05-05 17:40 24.54946 -109.47443 25759 ft 367 kts 176°
2026-05-05 17:41 24.52459 -109.46935 25272 ft 363 kts 176°
2026-05-05 17:41 24.50003 -109.46433 24786 ft 360 kts 176°
2026-05-05 17:41 24.47528 -109.45927 24293 ft 357 kts 176°
2026-05-05 17:41 24.45100 -109.45431 23803 ft 355 kts 175°
2026-05-05 17:42 24.42696 -109.44941 23318 ft 353 kts 175°
2026-05-05 17:42 24.40279 -109.44448 22734 ft 352 kts 176°
2026-05-05 17:42 24.37881 -109.43959 22140 ft 351 kts 175°
2026-05-05 17:42 24.35469 -109.43467 21543 ft 350 kts 175°
2026-05-05 17:43 24.33082 -109.42981 20947 ft 349 kts 175°
2026-05-05 17:43 24.30718 -109.42808 20338 ft 338 kts 191°
2026-05-05 17:43 24.28442 -109.43330 19764 ft 334 kts 196°
2026-05-05 17:43 24.26155 -109.43905 19155 ft 333 kts 196°
2026-05-05 17:44 24.23905 -109.44477 18560 ft 331 kts 195°
2026-05-05 17:44 24.21686 -109.45042 17975 ft 330 kts 196°
2026-05-05 17:44 24.19447 -109.45612 17393 ft 327 kts 196°
2026-05-05 17:44 24.17247 -109.46174 16894 ft 321 kts 196°
2026-05-05 17:45 24.15085 -109.46725 16400 ft 317 kts 196°
2026-05-05 17:45 24.12962 -109.47266 15886 ft 313 kts 196°
2026-05-05 17:45 24.10844 -109.47807 15374 ft 309 kts 196°
2026-05-05 17:45 24.08776 -109.48334 14957 ft 303 kts 196°
2026-05-05 17:46 24.06727 -109.48856 14502 ft 300 kts 196°
2026-05-05 17:46 24.04706 -109.49371 14047 ft 298 kts 197°
2026-05-05 17:46 24.02692 -109.49883 13587 ft 296 kts 197°
2026-05-05 17:46 24.00706 -109.50389 13101 ft 294 kts 197°
2026-05-05 17:47 23.98714 -109.50896 12636 ft 292 kts 197°
2026-05-05 17:47 23.96721 -109.51403 12167 ft 290 kts 196°
2026-05-05 17:47 23.94758 -109.51902 11678 ft 288 kts 197°
2026-05-05 17:47 23.92807 -109.52398 11179 ft 287 kts 196°
2026-05-05 17:48 23.90863 -109.52900 10730 ft 285 kts 198°
2026-05-05 17:48 23.89005 -109.53565 10269 ft 283 kts 201°
2026-05-05 17:48 23.87139 -109.54256 9813 ft 282 kts 201°
2026-05-05 17:48 23.85318 -109.54929 9704 ft 278 kts 201°
2026-05-05 17:49 23.83428 -109.55628 9709 ft 288 kts 201°
2026-05-05 17:49 23.81475 -109.56351 9420 ft 298 kts 201°
2026-05-05 17:49 23.79477 -109.57089 9046 ft 307 kts 201°
2026-05-05 17:49 23.77437 -109.57841 8675 ft 313 kts 201°
2026-05-05 17:50 23.75372 -109.58603 8392 ft 311 kts 201°
2026-05-05 17:50 23.73359 -109.59345 8101 ft 298 kts 201°
2026-05-05 17:50 23.71420 -109.60059 7812 ft 288 kts 201°
2026-05-05 17:50 23.69545 -109.60751 7567 ft 279 kts 201°
2026-05-05 17:51 23.67699 -109.61431 7333 ft 275 kts 201°
2026-05-05 17:51 23.65874 -109.62104 7089 ft 271 kts 201°
2026-05-05 17:51 23.64083 -109.62763 6837 ft 268 kts 201°
2026-05-05 17:51 23.62320 -109.63414 6620 ft 264 kts 201°
2026-05-05 17:52 23.60597 -109.64050 6438 ft 262 kts 201°
2026-05-05 17:52 23.58859 -109.64690 6241 ft 259 kts 201°
2026-05-05 17:52 23.57154 -109.65317 6061 ft 258 kts 201°
2026-05-05 17:52 23.55461 -109.65940 5879 ft 256 kts 201°
2026-05-05 17:53 23.53768 -109.66563 5651 ft 255 kts 201°
2026-05-05 17:53 23.52093 -109.67178 5403 ft 251 kts 201°
2026-05-05 17:53 23.50443 -109.67785 5158 ft 247 kts 201°
2026-05-05 17:53 23.48815 -109.68383 4946 ft 247 kts 201°
2026-05-05 17:54 23.47182 -109.68984 4707 ft 247 kts 200°
2026-05-05 17:54 23.45532 -109.69589 4467 ft 248 kts 200°
2026-05-05 17:54 23.43903 -109.70187 4230 ft 248 kts 200°
2026-05-05 17:54 23.42226 -109.70803 3984 ft 248 kts 200°
2026-05-05 17:55 23.40579 -109.71407 3816 ft 245 kts 200°
2026-05-05 17:55 23.38937 -109.72010 3468 ft 251 kts 200°
2026-05-05 17:55 23.37271 -109.72621 3231 ft 250 kts 200°
2026-05-05 17:55 23.35631 -109.73222 3053 ft 247 kts 199°
2026-05-05 17:56 23.34034 -109.73808 3044 ft 237 kts 199°
2026-05-05 17:56 23.32390 -109.74037 2986 ft 238 kts 174°
2026-05-05 17:56 23.30804 -109.73849 2918 ft 223 kts 174°
2026-05-05 17:56 23.29285 -109.73678 2748 ft 204 kts 174°
2026-05-05 17:57 23.27995 -109.73531 2545 ft 171 kts 173°
2026-05-05 17:57 23.26841 -109.73400 2325 ft 162 kts 173°
2026-05-05 17:57 23.25722 -109.73273 2130 ft 158 kts 173°
2026-05-05 17:57 23.24627 -109.73148 1943 ft 152 kts 173°
2026-05-05 17:58 23.23601 -109.73032 1747 ft 142 kts 173°
2026-05-05 17:58 23.22633 -109.72922 1534 ft 139 kts 172°
2026-05-05 17:58 23.21651 -109.72811 1350 ft 135 kts 172°
2026-05-05 17:58 23.20703 -109.72707 1198 ft 135 kts 172°
2026-05-05 17:59 23.19760 -109.72590 1038 ft 135 kts 171°
2026-05-05 17:59 23.18803 -109.72490 820 ft 137 kts 172°
2026-05-05 17:59 23.17866 -109.72382 633 ft 132 kts 171°
2026-05-05 17:59 23.16970 -109.72280 484 ft 129 kts 171°
2026-05-05 18:00 23.16087 -109.72179 381 ft 116 kts 171°
2026-05-05 18:00 23.15417 -109.72102 368 ft 68 kts 174°
2026-05-05 18:00 23.15069 -109.72063 360 ft 39 kts 174°
2026-05-05 18:00 23.14832 -109.72035 352 ft 27 kts 173°
2026-05-05 18:01 23.14673 -109.71995 347 ft 23 kts 154°
2026-05-05 18:01 23.14542 -109.71905 341 ft 17 kts 144°
2026-05-05 18:01 23.14465 -109.71837 336 ft 11 kts 112°
2026-05-05 18:01 23.14521 -109.71798 337 ft 13 kts 356°
2026-05-05 18:02 23.14627 -109.71809 341 ft 15 kts 354°
2026-05-05 18:02 23.14746 -109.71821 345 ft 19 kts 355°
2026-05-05 18:02 23.14887 -109.71836 350 ft 21 kts 355°
2026-05-05 18:02 23.15039 -109.71852 354 ft 22 kts 354°
2026-05-05 18:03 23.15174 -109.71866 358 ft 15 kts 354°
2026-05-05 18:03 23.15287 -109.71877 361 ft 17 kts 354°
2026-05-05 18:03 23.15412 -109.71890 364 ft 19 kts 354°
2026-05-05 18:03 23.15525 -109.71902 367 ft 14 kts 354°
2026-05-05 18:04 23.15630 -109.71912 369 ft 16 kts 354°
2026-05-05 18:04 23.15752 -109.71925 371 ft 18 kts 355°
2026-05-05 18:04 23.15889 -109.71938 373 ft 17 kts 354°
2026-05-05 18:04 23.16005 -109.71951 376 ft 15 kts 354°
2026-05-05 18:05 23.16120 -109.71963 377 ft 18 kts 354°
2026-05-05 18:05 23.16232 -109.71974 378 ft 9 kts 354°
2026-05-05 18:05 23.16277 -109.71942 378 ft 9 kts 83°
2026-05-05 18:05 23.16306 -109.71896 378 ft 5 kts 359°
2026-05-05 18:06 23.16321 -109.71898 378 ft 4 kts 354°
2026-05-05 18:06 23.16354 -109.71903 378 ft 8 kts 352°
2026-05-05 18:06 23.16427 -109.71910 379 ft 3 kts
2026-05-05 18:06 23.16445 -109.71879 378 ft 6 kts 77°
2026-05-05 18:07 23.16459 -109.71851 378 ft 4 kts 13°
2026-05-05 18:07 23.16481 -109.71852 378 ft 0 kts 354°
2026-05-05 18:07 23.16482 -109.71852 378 ft 0 kts 354°